Temp
15 14 14 14 14 14 14 14 14 14 14 14 14 14 13 13 13 13 13 13 13 13 13 12 12 12 12 12 12 12 12 12 11 11 11 11 11 11 11 11 11 11
15 15 15 14 14 14 14 14 14 14 14 13 13 13 13 13 13 13 13 13 13 13 13 13 13 12 12 12 12 12 12 12 12 12 11 11 11 11 11 11 11 11
15 15 15 15 14 14 14 14 14 14 14 14 14 14 14 14 14 14 14 13 13 13 13 13 13 13 13 12 12 12 12 12 12 12 12 12 12 11 11 11 11 11
15 15 15 15 15 15 15 15 15 15 15 14 14 14 14 14 14 14 14 14 14 14 13 13 13 13 13 13 13 13 13 13 12 12 12 12 12 12 12 11 11 11
15 15 15 15 15 15 15 15 15 15 15 15 15 15 15 15 15 14 14 14 14 14 14 14 14 13 13 13 13 13 13 13 13 13 12 12 12 12 12 12 12 11
16 16 16 16 16 15 15 15 15 15 16 16 16 16 15 15 15 15 15 14 14 14 14 14 14 14 14 14 13 13 13 13 13 13 13 13 13 13 12 12 12 12
16 16 16 16 16 16 16 16 16 16 16 16 16 16 16 16 16 15 15 15 15 15 15 14 14 14 14 14 14 14 14 14 13 13 13 13 13 13 13 13 12 12
17 17 17 17 17 17 16 16 16 16 16 16 16 16 16 16 16 16 15 15 15 15 15 15 15 15 15 14 14 14 14 14 14 14 14 14 13 13 13 13 13 12
17 17 17 17 17 17 17 17 17 17 17 17 16 16 16 16 16 16 16 15 15 15 15 15 15 15 15 15 15 14 14 14 14 14 14 14 14 14 13 13 13 13
17 17 17 17 17 17 17 17 17 17 17 17 17 16 16 16 16 16 16 16 16 16 15 15 15 15 15 15 15 15 15 15 14 14 14 14 14 14 14 13 13 13
18 18 18 18 18 18 17 17 17 17 17 17 16 16 16 16 16 16 16 16 15 15 15 15 15 15 15 15 15 15 15 15 14 14 14 14 14 14 14 13 13 13
18 18 18 18 18 18 17 17 17 17 16 16 16 16 16 15 15 15 15 15 15 15 15 15 15 15 15 15 15 14 14 14 14 14 14 14 14 14 13 13 13 13
18 18 18 18 17 17 17 17 17 16 16 16 16 16 15 15 15 15 15 15 15 15 15 15 15 15 14 14 14 14 14 14 14 14 14 13 13 13 13 13 12 12
18 18 18 17 17 17 17 16 16 16 16 16 16 15 15 15 15 15 15 15 15 15 14 14 14 14 14 14 14 13 13 13 13 13 13 13 13 13 12 12 12 12
18 18 17 17 17 17 16 16 16 16 16 16 16 16 16 16 16 15 15 15 15 14 14 14 14 13 13 13 13 13 13 13 13 13 13 12 12 12 12 12 12 12
18 17 17 17 17 16 16 16 16 16 16 16 16 16 16 16 15 15 15 15 14 14 13 13 13 13 13 12 12 12 12 12 12 12 12 12 12 12 12 12 11 11
17 17 17 17 16 16 16 16 16 16 17 17 17 16 15 14 14 14 13 13 13 12 12 12 12 12 12 12 12 12 12 12 12 12 12 11 11 11 11 11 11 11
17 17 17 16 16 16 16 16 16 17 17 16 16 15 13 13 13 12 12 12 12 12 11 12 12 11 11 11 11 11 11 11 11 11 11 11 11 11 11 11 11 11
16 16 16 16 16 16 16 17 17 17 16 15 14 13 12 12 12 12 12 12 11 11 11 11 11 11 11 11 11 11 11 11 11 11 11 11 11 10 10 10 10 10
16 16 16 16 17 17 17 16 16 15 15 13 13 12 12 12 11 11 11 11 11 11 11 11 11 10 10 10 10 10 10 10 10 10 10 10 10 10 10 10 9 9
16 16 17 17 17 16 16 15 15 14 13 12 12 12 11 11 11 11 11 11 11 10 10 10 10 10 10 10 10 10 10 10 10 10 10 10 10 9 9 9 9 9
16 17 17 16 16 15 15 14 13 13 12 11 11 11 11 11 11 11 11 10 10 10 10 10 10 10 10 9 9 9 9 9 10 10 10 10 10 9 9 9 9 9
16 16 16 15 15 14 13 13 12 12 11 11 11 11 11 11 10 10 10 10 10 10 9 10 10 9 9 9 9 9 9 9 9 10 10 10 10 9 9 9 9 9
16 15 15 14 13 13 12 12 11 11 11 11 11 11 10 10 10 10 10 10 10 9 9 9 9 9 8 8 8 8 9 9 9 9 9 9 9 9 9 9 9 9
14 14 14 13 12 12 11 11 11 11 11 11 10 10 10 10 10 10 10 9 9 9 9 8 8 8 8 8 8 8 8 8 8 9 9 9 9 9 9 9 9 9
13 13 13 12 12 11 11 11 10 10 10 10 10 10 10 10 10 10 9 9 9 9 8 8 8 8 8 8 8 8 8 7 7 8 8 8 8 8 8 9 9 9
Height
1524 1523 1523 1523 1522 1522 1521 1521 1520 1519 1519 1518 1518 1517 1517 1516 1516 1516 1515 1515 1515 1514 1514 1514 1514 1513 1513 1513 1512 1512 1511 1511 1510 1510 1509 1509 1508 1507 1507 1506 1506 1505
1523 1523 1523 1522 1522 1522 1521 1521 1520 1520 1519 1518 1518 1517 1517 1516 1516 1515 1515 1515 1514 1514 1513 1513 1513 1513 1513 1512 1512 1512 1511 1511 1510 1510 1509 1508 1508 1507 1506 1506 1505 1505
1523 1523 1523 1522 1522 1522 1521 1521 1520 1520 1519 1519 1518 1517 1517 1516 1516 1515 1515 1514 1514 1514 1513 1513 1513 1512 1512 1512 1511 1511 1511 1510 1510 1509 1509 1508 1508 1507 1506 1506 1505 1505
1523 1523 1523 1523 1522 1522 1522 1521 1520 1520 1519 1519 1518 1517 1517 1516 1515 1515 1514 1514 1514 1513 1513 1513 1512 1512 1511 1511 1510 1510 1509 1509 1509 1508 1508 1508 1507 1507 1506 1505 1505 1504
1523 1523 1523 1523 1522 1522 1522 1521 1520 1520 1519 1519 1518 1517 1517 1516 1515 1514 1514 1513 1513 1513 1512 1512 1512 1511 1511 1510 1510 1509 1508 1508 1508 1507 1507 1506 1506 1506 1505 1505 1504 1504
1524 1524 1523 1523 1522 1522 1521 1521 1520 1520 1519 1519 1518 1517 1517 1516 1515 1514 1514 1513 1513 1512 1512 1511 1511 1511 1510 1510 1509 1508 1507 1507 1507 1506 1506 1505 1505 1504 1504 1504 1503 1503
1524 1524 1523 1523 1522 1522 1521 1521 1520 1520 1519 1519 1518 1517 1517 1516 1515 1514 1514 1513 1512 1512 1511 1510 1510 1509 1509 1508 1507 1507 1506 1506 1505 1505 1504 1504 1503 1503 1503 1502 1502 1501
1524 1523 1523 1523 1522 1521 1521 1521 1520 1520 1519 1518 1518 1517 1517 1516 1515 1514 1513 1513 1512 1511 1511 1510 1509 1508 1508 1507 1506 1505 1504 1504 1503 1503 1502 1502 1502 1501 1501 1501 1500 1499
1523 1523 1523 1522 1522 1521 1521 1520 1520 1519 1519 1518 1518 1517 1516 1516 1515 1514 1513 1512 1511 1511 1510 1509 1508 1507 1506 1505 1504 1503 1503 1502 1501 1501 1500 1500 1500 1499 1499 1499 1498 1497
1523 1523 1522 1522 1521 1521 1521 1520 1520 1519 1519 1518 1518 1517 1516 1516 1515 1514 1513 1512 1511 1510 1509 1508 1507 1506 1505 1503 1502 1501 1501 1500 1499 1499 1498 1497 1497 1497 1497 1497 1496 1495
1522 1522 1522 1521 1521 1521 1520 1520 1520 1519 1519 1518 1517 1517 1516 1515 1514 1513 1512 1511 1510 1508 1507 1506 1505 1504 1503 1502 1501 1500 1498 1498 1497 1496 1496 1495 1494 1494 1494 1494 1494 1493
1521 1521 1521 1521 1521 1520 1520 1520 1519 1518 1518 1517 1516 1515 1514 1513 1512 1511 1510 1509 1507 1506 1505 1504 1503 1502 1501 1500 1498 1497 1496 1495 1494 1494 1493 1492 1492 1492 1491 1491 1491 1490
1520 1520 1520 1520 1520 1520 1519 1519 1518 1517 1516 1515 1515 1513 1512 1511 1510 1509 1508 1506 1505 1503 1502 1501 1500 1499 1497 1496 1495 1494 1493 1493 1492 1491 1490 1489 1489 1488 1488 1488 1488 1487
1520 1520 1519 1519 1519 1518 1518 1517 1516 1516 1515 1514 1513 1512 1511 1510 1508 1507 1506 1505 1503 1502 1500 1499 1497 1496 1494 1493 1492 1491 1490 1490 1489 1488 1487 1486 1486 1485 1485 1484 1484 1483
1518 1518 1518 1518 1517 1517 1517 1516 1515 1515 1514 1513 1512 1511 1510 1508 1507 1505 1504 1503 1501 1500 1498 1497 1495 1494 1492 1491 1490 1489 1488 1487 1486 1485 1484 1484 1483 1482 1481 1481 1480 1480
1517 1517 1517 1516 1516 1515 1515 1515 1515 1514 1513 1512 1511 1509 1508 1506 1505 1504 1502 1501 1500 1498 1497 1495 1494 1492 1491 1489 1488 1487 1486 1485 1484 1483 1482 1481 1480 1479 1478 1478 1478 1477
1516 1515 1515 1515 1515 1515 1514 1514 1514 1512 1511 1510 1509 1507 1506 1505 1504 1503 1501 1500 1499 1497 1496 1494 1493 1491 1490 1488 1487 1486 1485 1483 1482 1481 1480 1479 1478 1476 1476 1475 1475 1474
1515 1514 1514 1514 1514 1514 1514 1513 1512 1511 1509 1508 1507 1505 1504 1503 1502 1501 1500 1500 1498 1496 1495 1494 1493 1491 1489 1488 1487 1485 1484 1483 1481 1480 1479 1478 1476 1475 1474 1473 1472 1471
1514 1514 1513 1513 1513 1513 1512 1511 1510 1509 1508 1507 1505 1505 1504 1502 1501 1500 1500 1499 1498 1496 1495 1494 1492 1491 1490 1488 1487 1485 1484 1483 1481 1480 1479 1477 1476 1474 1473 1472 1470 1469
1513 1513 1512 1512 1511 1511 1510 1509 1509 1508 1507 1506 1505 1504 1503 1502 1501 1500 1499 1498 1497 1496 1495 1494 1492 1491 1490 1488 1487 1485 1484 1483 1482 1480 1479 1477 1476 1474 1473 1471 1470 1468
1511 1511 1511 1510 1510 1509 1509 1508 1508 1507 1506 1505 1504 1504 1503 1501 1500 1499 1499 1498 1497 1496 1495 1493 1492 1491 1490 1489 1487 1486 1484 1483 1482 1480 1479 1477 1476 1474 1473 1471 1469 1468
1510 1510 1510 1509 1509 1508 1508 1507 1507 1507 1506 1505 1504 1504 1503 1501 1500 1499 1498 1498 1497 1496 1495 1494 1493 1492 1490 1489 1487 1485 1484 1483 1481 1480 1479 1477 1476 1474 1473 1471 1469 1468
1509 1508 1508 1508 1508 1507 1507 1507 1506 1506 1506 1505 1504 1504 1503 1501 1500 1499 1498 1498 1497 1496 1495 1494 1493 1491 1490 1488 1487 1485 1483 1482 1480 1479 1478 1476 1475 1473 1472 1470 1469 1467
1507 1507 1508 1507 1507 1506 1506 1506 1506 1506 1506 1505 1504 1503 1503 1502 1501 1499 1498 1497 1496 1496 1495 1494 1493 1491 1490 1488 1486 1485 1483 1481 1480 1478 1477 1475 1474 1472 1471 1470 1468 1467
1507 1507 1507 1507 1506 1506 1506 1506 1506 1506 1506 1505 1504 1504 1503 1502 1501 1499 1498 1497 1496 1495 1495 1494 1493 1491 1490 1488 1486 1485 1483 1481 1479 1478 1476 1474 1473 1471 1470 1468 1467 1465
1507 1507 1507 1507 1506 1506 1506 1506 1505 1506 1505 1505 1504 1504 1503 1502 1501 1499 1497 1496 1496 1495 1494 1493 1492 1491 1490 1488 1486 1485 1483 1481 1479 1478 1476 1474 1472 1470 1468 1467 1465 1464
Wind_Speed
2 2 3 4 6 7 8 9 9 8 8 9 9 9 8 8 8 8 8 8 7 7 7 7 7 7 7 9 11 11 11 10 9 9 9 8 7 7 7 6 7 6
3 3 4 4 5 7 8 10 10 9 9 10 11 11 10 11 10 10 10 10 10 9 9 9 8 8 7 8 9 11 11 10 10 10 11 10 6 5 5 6 5 5
4 4 5 5 6 6 7 10 11 11 11 10 11 11 11 12 12 11 11 11 11 11 11 11 11 11 10 9 10 11 11 11 11 11 12 11 8 6 5 6 7 5
4 4 4 4 6 6 7 9 10 11 11 10 10 10 11 11 11 11 12 12 12 12 12 12 12 13 13 12 12 13 13 12 12 11 12 12 10 9 7 7 9 9
5 4 4 4 5 6 7 8 9 10 10 10 10 10 10 10 10 11 12 12 13 13 13 13 14 14 14 14 15 15 15 15 14 13 14 13 12 11 10 10 11 12
6 5 5 5 5 6 7 8 9 9 10 10 10 9 10 10 11 11 12 13 14 15 15 16 16 16 16 16 17 17 18 18 18 16 16 16 14 13 12 12 13 13
6 6 6 6 6 7 7 8 8 9 9 10 10 10 11 11 11 12 12 14 15 16 17 17 17 17 17 18 18 19 19 19 20 20 20 19 18 16 14 14 14 14
6 6 6 6 6 6 7 7 8 8 9 10 11 12 12 13 13 13 13 14 15 16 17 17 18 18 18 18 19 19 20 20 20 21 22 22 21 20 18 15 15 16
5 5 5 5 5 6 7 7 8 9 10 12 12 13 14 15 16 16 16 16 16 17 18 18 19 20 20 20 20 20 21 21 22 22 23 23 23 23 21 18 17 17
3 3 3 4 6 7 8 8 9 10 11 12 13 14 14 15 17 17 18 18 18 19 19 19 20 21 21 21 22 22 22 22 22 23 23 24 24 24 23 22 19 18
2 2 3 5 7 8 8 9 10 10 11 13 13 14 15 16 17 18 19 20 21 22 22 22 22 23 23 23 24 24 24 24 24 24 24 24 24 25 25 25 23 21
3 3 4 5 6 7 6 7 9 10 11 12 14 15 16 17 18 19 20 21 22 22 23 24 24 25 26 26 26 25 25 25 25 26 27 25 24 24 26 27 26 24
3 3 3 3 4 6 7 9 10 12 13 14 15 16 16 16 16 16 17 18 20 20 20 20 21 23 24 25 25 25 25 25 25 26 27 26 25 25 25 26 27 27
2 4 6 7 9 10 11 11 11 11 11 11 12 12 12 13 14 15 17 18 19 18 17 17 17 18 19 20 21 22 23 23 23 23 24 24 25 26 25 24 24 26
8 9 10 11 12 12 10 9 7 6 7 8 10 12 13 15 16 18 19 20 19 18 17 17 17 17 18 18 19 20 21 22 22 22 21 21 21 22 22 22 23 26
12 12 12 11 10 9 7 6 5 6 9 11 14 15 16 16 16 16 17 18 17 17 16 16 17 17 17 18 18 18 19 19 19 19 17 17 16 16 17 18 19 21
12 11 10 9 8 6 5 5 8 11 14 15 16 16 14 13 12 13 14 14 14 16 16 16 16 16 17 17 17 17 17 17 17 16 15 13 12 12 13 13 14 15
11 11 10 8 6 4 5 9 12 15 17 17 16 14 12 11 11 12 13 13 13 14 16 17 18 17 17 17 17 16 16 16 15 15 13 12 11 11 11 12 12 12
11 10 8 5 4 6 10 13 16 18 18 16 13 11 10 11 12 13 14 13 12 12 14 15 16 16 16 17 17 17 17 17 17 16 15 14 13 12 12 11 12 12
9 6 4 5 8 11 14 15 16 15 14 13 12 10 9 11 12 13 14 14 12 11 12 13 14 15 16 17 18 18 19 19 18 18 17 16 16 15 14 14 14 14
5 4 6 8 11 13 14 13 12 11 10 11 11 10 9 11 13 13 13 12 10 10 10 12 13 15 16 17 18 18 19 18 18 18 18 17 16 15 15 14 14 14
5 7 9 10 11 12 11 11 10 9 9 9 9 9 10 11 12 12 11 11 11 11 11 12 13 14 16 17 17 18 18 18 19 20 19 18 17 16 16 15 14 14
7 9 10 10 10 9 9 8 7 8 9 9 10 10 11 11 11 11 11 11 11 11 12 13 14 14 16 17 18 19 20 20 21 21 20 19 18 17 17 16 15 15
9 10 10 9 8 7 6 6 8 10 11 10 10 11 11 11 10 10 11 11 11 11 11 12 13 14 16 18 20 22 23 23 22 21 20 19 18 17 17 17 16 15
9 9 7 6 5 4 5 6 7 9 9 9 10 10 11 12 11 11 12 12 12 11 9 10 13 16 18 20 22 23 23 22 22 21 21 21 21 20 19 18 18 17
8 5 4 3 3 4 5 4 5 7 7 9 10 11 11 13 14 15 15 13 11 9 9 10 14 17 20 22 23 23 22 21 23 23 23 23 23 23 22 22 21 21
Wind_Direction
62 67 63 57 44 34 29 26 21 15 13 9 5 2 358 1 7 11 11 7 355 336 321 313 313 321 322 318 321 327 336 339 340 344 348 353 357 350 347 5 25 19
69 63 60 56 42 27 18 18 16 14 14 8 5 4 3 3 4 7 12 14 11 3 350 338 332 331 325 314 312 315 321 324 323 323 328 336 342 336 327 329 350 2
71 70 60 47 37 22 11 12 11 10 9 3 358 356 355 358 0 4 6 5 4 1 357 354 349 345 340 330 320 316 317 320 318 311 313 322 323 315 309 301 307 317
71 75 62 38 25 18 12 12 12 9 7 5 2 359 357 358 1 3 3 360 357 353 347 345 345 344 340 334 325 320 320 321 320 310 305 310 311 307 306 294 289 290
72 68 59 41 23 16 12 12 12 8 5 5 4 2 0 0 359 359 357 353 350 347 342 337 336 335 333 329 321 317 316 317 319 314 306 307 306 300 299 293 287 286
63 56 49 38 26 16 9 9 8 5 5 5 3 0 357 356 355 353 351 346 342 340 338 335 331 330 328 324 318 314 311 310 311 308 305 307 308 302 297 292 288 287
44 38 34 26 22 15 6 6 6 5 7 5 4 2 357 355 354 352 348 345 341 337 336 334 330 328 326 321 316 313 310 308 307 304 301 302 303 302 300 295 290 289
29 24 22 16 16 11 5 6 8 10 10 6 5 3 358 355 352 350 347 342 339 336 334 332 330 328 325 320 315 312 310 307 305 301 300 299 297 298 300 299 293 287
16 15 17 19 21 18 15 14 13 13 10 5 6 4 359 356 351 347 343 338 335 333 331 329 327 325 322 318 314 313 311 309 306 301 299 298 296 296 297 297 294 290
6 17 28 32 28 23 20 16 12 10 7 2 0 359 356 354 349 344 339 334 331 328 326 324 322 320 318 314 311 310 308 307 305 301 297 296 295 295 295 293 292 293
65 47 39 34 26 21 20 16 7 358 355 352 346 342 340 337 333 328 323 320 319 318 317 316 316 315 313 311 310 307 305 303 302 300 297 296 294 294 292 290 289 289
86 43 30 28 19 9 360 351 341 330 324 322 317 314 312 310 310 309 307 304 304 305 306 307 308 308 307 307 307 304 300 299 298 299 299 296 291 289 288 286 286 285
61 12 347 333 312 300 294 296 302 301 297 297 298 299 299 299 299 300 299 299 299 300 300 300 299 299 298 298 299 298 295 293 293 295 296 293 286 285 287 284 282 280
265 267 260 261 269 275 280 284 288 292 293 294 296 299 300 300 301 302 302 302 303 304 305 303 301 298 297 298 300 302 301 301 302 302 302 297 289 288 290 286 281 278
249 256 257 258 264 270 273 274 276 284 295 302 307 310 310 309 309 308 307 307 309 312 313 311 312 312 313 314 314 312 309 309 310 311 311 307 300 296 296 295 291 286
254 258 257 253 253 251 246 251 271 297 311 315 315 315 316 316 316 315 316 320 327 332 331 328 327 326 326 326 325 322 319 316 316 318 321 320 316 309 303 299 297 292
244 236 230 221 216 218 236 274 304 314 318 319 320 323 327 329 330 333 335 342 353 357 356 354 350 346 342 340 338 337 334 331 330 332 335 334 330 324 315 308 304 296
204 198 199 199 207 248 300 316 319 318 318 323 331 338 341 340 343 346 348 355 3 4 3 2 359 357 355 354 355 357 356 355 353 351 351 348 340 334 327 319 313 307
187 192 202 224 279 314 319 317 317 319 323 331 344 349 341 341 347 348 349 353 356 358 1 0 359 2 2 2 5 8 8 7 6 4 3 2 358 354 348 341 333 326
193 208 241 288 308 314 314 315 321 328 332 337 346 349 342 344 351 351 350 351 353 358 2 2 3 6 5 3 5 7 7 7 8 8 7 6 4 2 359 355 350 343
218 257 287 301 310 313 316 324 333 336 336 340 346 351 348 348 352 355 358 4 12 14 10 10 12 10 4 2 3 4 5 6 8 9 8 6 4 3 1 357 352 346
275 292 301 308 316 320 326 337 344 343 344 348 351 352 351 353 358 3 11 26 36 31 23 19 17 11 6 5 4 2 2 2 3 3 3 2 2 3 2 358 351 344
295 304 315 324 327 332 342 356 8 13 9 1 356 358 360 2 8 13 20 34 40 34 27 22 18 13 10 6 3 0 358 357 357 358 358 358 0 1 0 358 354 348
312 319 327 335 337 345 6 26 31 29 24 15 9 13 15 12 9 6 13 27 33 27 24 23 19 15 9 3 0 358 356 356 356 355 355 356 357 357 356 356 355 352
318 322 331 343 351 15 45 46 30 25 27 24 21 24 25 21 16 6 3 14 23 23 26 27 19 12 7 4 1 0 0 3 1 357 357 358 357 354 351 350 350 350
314 322 346 6 28 60 72 61 36 35 35 24 19 19 17 18 22 18 11 11 16 21 26 23 16 11 10 9 8 8 10 11 9 5 3 1 358 355 352 349 348 349